ONEWEB-0267, 48985

Orbit data source: Space-Track

ONEWEB-0267, 48985 is a payload satellite owned by One Web (NAA) (UK) in LEO that was launched on Thu, 01 Jul 2021 UTC via a SOYUZ-2-1B launch vehicle from the Vostochny Cosmodrome (VOSTO). Payload-class satellites include a variety of spacecraft equipped with specific instruments for various scientific and technological missions. These include communications satellites like Starlink; space stations such as the ISS; scientific satellites like the Hubble; Earth observation satellites from companies like Planet Labs, Umbra, and HawkEye 360; GPS; miniature CubeSats for education and research; and military/defense satellites.

Loading next visibility...
Identifier
48985, 2021-060U
Orbit
LEO
Country
Flag of UKUK
Related business
Manufacturer
One Web
Mission
Operational Commercial Communications
Bus & Motor
ARROW, Unknown motor
Mass
148 kg wet, ~140 kg dry
Launch date (UTC)
2021-07-01 (4 years ago)
Launch vehicle
SOYUZ-2-1B
Launch site
Vostochny Cosmodrome (VOSTO)
Object type
Payload
Rocket body
Debris
Shape & HBR
Trap Box + 2 Pan, 6.7 m
Radar Cross Section
3.464 m², Large (>1 m²)

Expand to show TLE details & history
Last TLE update: 8 hours ago

TLE from 8 hours ago
0 ONEWEB-0267
1 48985U 21060U   25349.83608104 -.00000029  00000-0 -10820-3 0  9993
2 48985  87.9043 265.2809 0001918  71.3523 288.7816 13.16591289215462
Epoch: 2025-12-15T20:03Z
TLE epoch observation values (Epoch: 2025-12-15T20:03:57.401Z)
Latitude
-0.00005°
Longitude
-120.43721°
Altitude
1,200.197 km
Speed
7.254 km/s
True Right ascension
17h 41m 07s
True Declination
0° 00' 00"
Sunlit
Object was in daylight at epoch
Visualization orbit readout
Latitude
Unknown
Longitude
Unknown
Altitude
Unknown
Speed
Unknown
Apparent Right ascension
Unknown
Apparent Declination
Unknown
Sunlit
N/A
Visualization observer readout
Local Sidereal Time
03:06:49
Azimuth
Unknown
Elevation
Unknown
Doppler factor
Unknown
Orbital elements
Apogee altitude
1,196.331 km
Perigee altitude
1,193.426 km
Semi-major axis
7,573.016 km
Eccentricity
0.00019
Inclination
87.9043°
RAAN
265.2809°
Arg. of periapsis
71.3523°
True anomaly
288.76079°
Mean anomaly
288.7816°
Eccentric anomaly
288.7712°
Mean motion
3.29337 °/min
Orbital period
109.31 mins
BSTAR
-0.0001082
Loading maneuver chart data...
Computing Atmospheric mass density...
Loading historical data...
Loading historical data...
Loading historical data...
Loading historical data...
Loading historical data...
Loading historical data...
Loading historical data...

Documentation

Showing up to 5 results
|